This is the latest recevied weather packets stored in our database for station/object SP2FH-13. If no packets are shown the sender has not sent any weather packets the latest 10 day(s).
| Time | Temp. | Humidity | Pressure | Rain* | Wind** | Luminosity | Snow |
|---|---|---|---|---|---|---|---|
| 1777612338 | 7.78° C | 67% | 1015.8 hPa | - | - | 106 W/m² | - |
| 1777612037 | 7.22° C | 68% | 1015.8 hPa | - | - | 95 W/m² | - |
| 1777611736 | 6.67° C | 69% | 1015.8 hPa | - | - | 85 W/m² | - |
| 1777611434 | 6.67° C | 70% | 1015.9 hPa | - | - | 75 W/m² | - |
| 1777611134 | 6.11° C | 71% | 1015.9 hPa | - | - | 66 W/m² | - |
| 1777610832 | 6.11° C | 72% | 1016 hPa | - | - | 60 W/m² | - |
| 1777610532 | 5.56° C | 73% | 1016 hPa | - | - | 53 W/m² | - |
| 1777610231 | 5.56° C | 73% | 1015.9 hPa | - | - | 43 W/m² | - |
| 1777609930 | 5.56° C | 73% | 1015.9 hPa | - | - | 39 W/m² | - |
| 1777609629 | 5° C | 73% | 1015.8 hPa | - | - | 41 W/m² | - |
| 1777609327 | 5° C | 74% | 1015.8 hPa | - | - | 37 W/m² | - |
| 1777609027 | 4.44° C | 75% | 1015.8 hPa | - | - | 36 W/m² | - |
| 1777608726 | 4.44° C | 75% | 1015.7 hPa | - | - | 28 W/m² | - |
| 1777608425 | 3.89° C | 76% | 1015.7 hPa | - | - | 26 W/m² | - |
| 1777608124 | 3.89° C | 77% | 1015.6 hPa | - | - | 24 W/m² | - |
| 1777607823 | 3.89° C | 77% | 1015.7 hPa | - | - | 22 W/m² | - |
| 1777607522 | 3.89° C | 78% | 1015.7 hPa | - | - | 19 W/m² | - |
| 1777607221 | 3.89° C | 78% | 1015.6 hPa | - | - | 17 W/m² | - |
| 1777606920 | 3.33° C | 79% | 1015.7 hPa | - | - | 15 W/m² | - |
| 1777606619 | 3.33° C | 79% | 1015.6 hPa | - | - | 12 W/m² | - |
| 1777606318 | 3.33° C | 80% | 1015.7 hPa | - | - | 10 W/m² | - |
| 1777606017 | 3.33° C | 79% | 1015.7 hPa | - | - | 8 W/m² | - |
| 1777605716 | 3.33° C | 81% | 1015.6 hPa | - | - | 6 W/m² | - |
| 1777605415 | 3.33° C | 81% | 1015.6 hPa | - | - | 4 W/m² | - |
| 1777605113 | 3.33° C | 81% | 1015.7 hPa | - | - | 3 W/m² | - |
* Rain since midnight (hover to see other rain measurements)
** Current wind speed in m/s (hover to see current wind gust speed)